Simultaneous Nadir Overpasses (SNOs) Predictions

Prediction of SNOs between AQUA and GOES-15 Satellite Orbit:

Table of predicted SNOs for the next 14.0 days since TLE Epoch: 10/26/2019
Index Date Time (AQUA) AQUA Lat,Lon GOES-15 Lat,Lon Distance(km) Time Diff (sec)
1 10/27/2019 22:04:02 0.11,-127.18 -0.17,-128.35 133.27 80
2 10/28/2019 10:25:18 0.96,-132.34 0.15,-128.40 447.32 80
3 10/29/2019 21:51:50 0.74,-124.22 -0.17,-128.38 473.72 80
4 10/30/2019 10:13:06 0.34,-129.38 0.15,-128.44 107.07 80
5 11/01/2019 10:00:54 -0.29,-126.42 0.15,-128.47 232.62 80
6 11/01/2019 22:22:17 -0.80,-131.62 -0.13,-128.43 362.59 80
7 11/03/2019 22:10:06 -0.17,-128.66 -0.13,-128.45 23.27 80
8 11/05/2019 21:57:54 0.47,-125.70 -0.13,-128.48 315.87 80
9 11/06/2019 10:19:09 0.61,-130.86 0.11,-128.53 265.05 80
10 11/08/2019 10:06:57 -0.03,-127.90 0.11,-128.55 73.79 80




NCC Satellite Simultaneous Nadir Overpasses (SNOs) Prediction Service
